RADUGA 29 [-]

Last updated on Oct. 27, 2020, 5:53 a.m. UTC

1 22557U 93013A   20300.54644248 -.00000369  00000-0  00000-0 0  9998
2 22557  14.8677   1.4727 0005913  76.5927 282.0526  1.00230714101028
UTC
Height (km)
Latitude
Longitude
Inclination
Orbital Period
UTC large
Height (km)
Speed (km/s)
/
Latitude / Longitude
Inclination (degrees)
Orbital Period (minutes)
Azimuth
Elevation
Range (km)
Doppler Factor
iOS Compass Heading
iOS Angle

Next 30 passes for location: Hong Kong

Rise time Rise Azimuth (degrees) Set time Set Azimuth (degrees) Duration Max altitude (degrees)

No matching passes for this satellites